Hartford, CT

9:45 PM EDT on July 24, 2017 (GMT -0400)
Hartford-brainard

Weather History for KHFD - July, 2013

Change the Weather History Date:

Tuesday, July 30, 2013

  Actual Average Record
Temperature  
Mean Temperature 72 °F -  
Max Temperature 82 °F 82 °F 97 °F (1933)
Min Temperature 63 °F 62 °F 50 °F (1956)
Cooling Degree Days 7    
Growing Degree Days 22 (Base 50)    
Moisture  
Dew Point 56 °F    
Average Humidity 56    
Maximum Humidity 84    
Minimum Humidity 39    
Precipitation  
Precipitation 0.00 in - - ()
Sea Level Pressure  
Sea Level Pressure 30.10 in    
Wind  
Wind Speed 4 mph (NW)    
Max Wind Speed 12 mph    
Max Gust Speed 17 mph    
Visibility 10 miles    
Events      
Averages and records for this station are not official NWS values.
T = Trace of Precipitation, MM = Missing Value Source: NWS Daily Summary

Daily Weather History Graph

Daily Weather History Graph

Search for Another Location

Airport or City:

Trip Planner

Search our weather history database for the weather conditions in past years. The results will help you decide how hot, cold, wet, or windy it might be!

Date:

Astronomy

Jul. 30, 2013 Rise Set
Actual Time 5:42 AM EDT 8:10 PM EDT
Civil Twilight 5:11 AM EDT 8:41 PM EDT
Nautical Twilight 4:32 AM EDT 9:21 PM EDT
Astronomical Twilight 3:48 AM EDT 10:04 PM EDT
Moon No Moon Rise 2:27 PM EDT (7/30)
Length of Visible Light 15h 30m
Length of Day
14h 27m
Last Quarter, 41% of the Moon is Illuminated
Jul 30
Last Quarter
Aug 6
New
Aug 14
First Quarter
Aug 20
Full
Aug 28
Last Quarter

Hourly Weather History & Observations

Time (EDT) Temp. Heat Index Dew Point Humidity Pressure Visibility Wind Dir Wind Speed Gust Speed Precip Events Conditions
12:53 AM 71.1 °F - 55.9 °F 59% 30.08 in 10.0 mi North 3.5 mph - N/A   Mostly Cloudy
1:53 AM 68.0 °F - 57.0 °F 68% 30.09 in 10.0 mi Calm Calm - N/A   Scattered Clouds
2:53 AM 68.0 °F - 55.9 °F 65% 30.08 in 10.0 mi NNE 3.5 mph - N/A   Scattered Clouds
3:53 AM 66.9 °F - 57.0 °F 70% 30.09 in 10.0 mi Calm Calm - N/A   Mostly Cloudy
4:53 AM 64.9 °F - 57.0 °F 75% 30.10 in 10.0 mi Calm Calm - N/A   Mostly Cloudy
5:53 AM 63.0 °F - 55.0 °F 75% 30.11 in 10.0 mi Calm Calm - N/A   Clear
6:53 AM 66.9 °F - 55.0 °F 66% 30.12 in 10.0 mi Calm Calm - N/A   Clear
7:53 AM 70.0 °F - 55.0 °F 59% 30.13 in 10.0 mi NW 6.9 mph - N/A   Clear
8:53 AM 72.0 °F - 55.9 °F 57% 30.14 in 10.0 mi NW 6.9 mph - N/A   Clear
9:53 AM 73.9 °F - 57.0 °F 55% 30.14 in 10.0 mi North 9.2 mph - N/A   Clear
10:53 AM 75.9 °F - 57.0 °F 52% 30.13 in 10.0 mi NNW 8.1 mph - N/A   Clear
11:53 AM 78.1 °F - 57.0 °F 48% 30.12 in 10.0 mi NNW 10.4 mph - N/A   Partly Cloudy
12:53 PM 78.1 °F - 57.0 °F 48% 30.11 in 10.0 mi WNW 9.2 mph - N/A   Scattered Clouds
1:53 PM 81.0 °F 80.8 °F 55.9 °F 42% 30.10 in 10.0 mi NW 10.4 mph 16.1 mph N/A   Scattered Clouds
2:53 PM 81.0 °F 80.8 °F 55.9 °F 42% 30.08 in 10.0 mi NNW 10.4 mph 17.3 mph N/A   Mostly Cloudy
3:53 PM 81.0 °F 80.7 °F 55.0 °F 41% 30.07 in 10.0 mi NW 11.5 mph 16.1 mph N/A   Partly Cloudy
4:53 PM 81.0 °F 80.5 °F 54.0 °F 39% 30.06 in 10.0 mi Variable 3.5 mph - N/A   Partly Cloudy
5:53 PM 81.0 °F 80.5 °F 54.0 °F 39% 30.06 in 10.0 mi Variable 3.5 mph - N/A   Scattered Clouds
6:53 PM 79.0 °F - 53.1 °F 40% 30.08 in 10.0 mi WNW 5.8 mph - N/A   Clear
7:53 PM 77.0 °F - 55.0 °F 47% 30.10 in 10.0 mi Variable 4.6 mph - N/A   Clear
8:53 PM 75.0 °F - 55.9 °F 51% 30.11 in 10.0 mi Calm Calm - N/A   Clear
9:53 PM 73.9 °F - 57.0 °F 55% 30.11 in 10.0 mi West 3.5 mph - N/A   Clear
10:53 PM 68.0 °F - 61.0 °F 78% 30.12 in 10.0 mi Calm Calm - N/A   Clear
11:53 PM 66.9 °F - 62.1 °F 84% 30.11 in 10.0 mi Calm Calm - N/A   Partly Cloudy